TimeEDT,TemperatureF,Dew PointF,Humidity,Sea Level PressureIn,VisibilityMPH,Wind Direction,Wind SpeedMPH,Gust SpeedMPH,PrecipitationIn,Events,Conditions,WindDirDegrees,DateUTC
12:56 AM,53.1,52.0,96,30.22,10.0,Calm,Calm,-,N/A,,Clear,0,2013-07-30 04:56:00
1:56 AM,52.0,51.1,97,30.22,5.0,Calm,Calm,-,N/A,,Clear,0,2013-07-30 05:56:00
2:56 AM,52.0,50.0,93,30.22,6.0,Calm,Calm,-,N/A,,Clear,0,2013-07-30 06:56:00
3:13 AM,51.8,50.0,94,30.22,1.8,Calm,Calm,-,N/A,,Clear,0,2013-07-30 07:13:00
3:18 AM,50.0,48.2,94,30.22,0.8,Calm,Calm,-,N/A,,Clear,0,2013-07-30 07:18:00
3:28 AM,51.8,50.0,94,30.22,1.2,Calm,Calm,-,N/A,,Clear,0,2013-07-30 07:28:00
3:31 AM,51.8,48.2,88,30.22,5.0,Calm,Calm,-,N/A,,Clear,0,2013-07-30 07:31:00
3:53 AM,50.0,48.2,94,30.22,4.0,Calm,Calm,-,N/A,,Scattered Clouds,0,2013-07-30 07:53:00
3:56 AM,50.0,48.9,96,30.22,5.0,Calm,Calm,-,N/A,,Mostly Cloudy,0,2013-07-30 07:56:00
4:07 AM,50.0,48.2,94,30.23,2.5,Calm,Calm,-,N/A,,Scattered Clouds,0,2013-07-30 08:07:00
4:14 AM,51.8,48.2,88,30.23,5.0,Calm,Calm,-,N/A,,Scattered Clouds,0,2013-07-30 08:14:00
4:38 AM,51.8,48.2,88,30.23,1.5,Calm,Calm,-,N/A,,Clear,0,2013-07-30 08:38:00
4:42 AM,51.8,48.2,88,30.23,0.8,Calm,Calm,-,N/A,,Clear,0,2013-07-30 08:42:00
4:56 AM,51.1,48.9,92,30.23,1.0,Calm,Calm,-,N/A,,Clear,0,2013-07-30 08:56:00
5:07 AM,51.8,50.0,94,30.23,0.5,Calm,Calm,-,N/A,Fog,Fog,0,2013-07-30 09:07:00
5:17 AM,50.0,48.2,94,30.24,1.2,Calm,Calm,-,N/A,,Clear,0,2013-07-30 09:17:00
5:22 AM,50.0,48.2,94,30.24,0.8,Calm,Calm,-,N/A,,Clear,0,2013-07-30 09:22:00
5:47 AM,48.2,48.2,100,30.24,1.2,Calm,Calm,-,N/A,,Clear,0,2013-07-30 09:47:00
5:49 AM,50.0,48.2,94,30.24,3.0,Calm,Calm,-,N/A,,Clear,0,2013-07-30 09:49:00
5:56 AM,50.0,48.9,96,30.24,5.0,Calm,Calm,-,N/A,,Clear,0,2013-07-30 09:56:00
6:17 AM,48.2,48.2,100,30.24,0.5,Calm,Calm,-,N/A,Fog,Fog,0,2013-07-30 10:17:00
6:56 AM,50.0,50.0,100,30.25,0.5,Calm,Calm,-,N/A,Fog,Fog,0,2013-07-30 10:56:00
6:59 AM,51.8,50.0,94,30.25,2.0,Calm,Calm,-,N/A,,Clear,0,2013-07-30 10:59:00
7:16 AM,51.8,51.8,100,30.25,1.5,Calm,Calm,-,N/A,,Clear,0,2013-07-30 11:16:00
7:23 AM,53.6,51.8,94,30.25,3.0,Calm,Calm,-,N/A,,Clear,0,2013-07-30 11:23:00
7:56 AM,55.9,55.0,97,30.25,6.0,Calm,Calm,-,N/A,,Clear,0,2013-07-30 11:56:00
8:56 AM,63.0,57.9,84,30.25,10.0,Calm,Calm,-,N/A,,Clear,0,2013-07-30 12:56:00
9:56 AM,68.0,59.0,73,30.26,10.0,WSW,4.6,-,N/A,,Clear,250,2013-07-30 13:56:00
10:56 AM,70.0,57.9,65,30.25,10.0,Calm,Calm,-,N/A,,Clear,0,2013-07-30 14:56:00
11:56 AM,71.1,57.0,61,30.25,10.0,SW,5.8,-,N/A,,Scattered Clouds,230,2013-07-30 15:56:00
12:56 PM,73.9,55.9,53,30.24,10.0,Calm,Calm,-,N/A,,Mostly Cloudy,0,2013-07-30 16:56:00
1:56 PM,73.9,57.0,55,30.23,10.0,Variable,4.6,-,N/A,,Partly Cloudy,0,2013-07-30 17:56:00
2:56 PM,75.0,57.0,53,30.21,10.0,Variable,4.6,-,N/A,,Partly Cloudy,0,2013-07-30 18:56:00
3:56 PM,75.0,57.0,53,30.20,10.0,West,3.5,-,N/A,,Mostly Cloudy,280,2013-07-30 19:56:00
4:56 PM,75.9,57.0,52,30.19,10.0,Calm,Calm,-,N/A,,Clear,0,2013-07-30 20:56:00
5:56 PM,75.9,55.9,50,30.19,10.0,Calm,Calm,-,N/A,,Clear,0,2013-07-30 21:56:00
6:56 PM,73.9,57.9,57,30.18,10.0,WNW,3.5,-,N/A,,Clear,300,2013-07-30 22:56:00
7:56 PM,72.0,55.9,57,30.17,10.0,Calm,Calm,-,N/A,,Partly Cloudy,0,2013-07-30 23:56:00
8:56 PM,64.9,61.0,87,30.17,9.0,Calm,Calm,-,N/A,,Clear,0,2013-07-31 00:56:00
9:56 PM,63.0,59.0,87,30.17,10.0,Calm,Calm,-,N/A,,Clear,0,2013-07-31 01:56:00
10:56 PM,60.1,57.9,93,30.17,8.0,Calm,Calm,-,N/A,,Clear,0,2013-07-31 02:56:00
11:56 PM,60.1,57.0,90,30.17,10.0,Calm,Calm,-,N/A,,Clear,0,2013-07-31 03:56:00